• In Netherlands
  • List of Countries
  • For 7 days
  • Water Temperature
  • Satellite Maps
  • Weather Map
  • Weather Widgets
  • user-avatar
    Login

    Hourly Weather Natitingou

    Today, 17 January, Tuesday

    Time Temperature Precipitation Wind Pressure Humidity
    00:00 +22°C° 0 mm 1 mps 715 mmHg 25%
    01:00 +21°C° 0 mm 1 mps 715 mmHg 25%
    02:00 +21°C° 0 mm 1 mps 715 mmHg 26%
    03:00 +21°C° 0 mm 1 mps 715 mmHg 26%
    04:00 +21°C° 0 mm 1 mps 715 mmHg 26%
    05:00 +20°C° 0 mm 1 mps 715 mmHg 26%
    06:00 +20°C° 0 mm 1 mps 716 mmHg 27%
    07:00 +24°C° 0 mm 1 mps 716 mmHg 22%
    08:00 +27°C° 0 mm 2 mps 717 mmHg 17%
    09:00 +31°C° 0 mm 2 mps 718 mmHg 13%
    10:00 +34°C° 0 mm 2 mps 718 mmHg 11%
    11:00 +37°C° 0 mm 2 mps 717 mmHg 10%
    12:00 +39°C° 0 mm 1 mps 717 mmHg 8%
    13:00 +40°C° 0 mm 1 mps 716 mmHg 8%
    14:00 +40°C° 0 mm 1 mps 715 mmHg 8%
    15:00 +41°C° 0 mm 1 mps 715 mmHg 8%
    16:00 +36°C° 0 mm 1 mps 714 mmHg 11%
    17:00 +32°C° 0 mm 1 mps 714 mmHg 14%
    18:00 +28°C° 0 mm 1 mps 713 mmHg 17%
    19:00 +26°C° 0 mm 1 mps 714 mmHg 18%
    20:00 +24°C° 0 mm 1 mps 714 mmHg 20%
    21:00 +23°C° 0 mm 1 mps 714 mmHg 22%
    22:00 +22°C° 0 mm 1 mps 714 mmHg 23%
    23:00 +21°C° 0 mm 1 mps 714 mmHg 25%

    Tomorrow, 18 January, Wednesday

    Time Temperature Precipitation Wind Pressure Humidity
    00:00 +17°C° 0 mm 0 mps 714 mmHg 26%
    01:00 +19°C° 0 mm 1 mps 714 mmHg 26%
    02:00 +19°C° 0 mm 1 mps 714 mmHg 26%
    03:00 +19°C° 0 mm 1 mps 714 mmHg 25%
    04:00 +20°C° 0 mm 1 mps 714 mmHg 25%
    05:00 +20°C° 0 mm 1 mps 715 mmHg 25%
    06:00 +20°C° 0 mm 1 mps 715 mmHg 25%
    07:00 +24°C° 0 mm 1 mps 716 mmHg 24%
    08:00 +27°C° 0 mm 1 mps 717 mmHg 23%
    09:00 +31°C° 0 mm 1 mps 718 mmHg 22%
    10:00 +34°C° 0 mm 1 mps 718 mmHg 18%
    11:00 +37°C° 0 mm 1 mps 718 mmHg 15%
    12:00 +41°C° 0 mm 1 mps 717 mmHg 11%
    13:00 +38°C° 0 mm 0 mps 716 mmHg 10%
    14:00 +39°C° 0 mm 0 mps 716 mmHg 10%
    15:00 +39°C° 0 mm 0 mps 715 mmHg 9%
    16:00 +34°C° 0 mm 0 mps 714 mmHg 14%
    17:00 +29°C° 0 mm 0 mps 714 mmHg 18%
    18:00 +25°C° 0 mm 1 mps 713 mmHg 23%
    19:00 +24°C° 0 mm 1 mps 714 mmHg 25%
    20:00 +21°C° 0 mm 0 mps 714 mmHg 28%
    21:00 +19°C° 0 mm 0 mps 715 mmHg 31%
    22:00 +19°C° 0 mm 0 mps 715 mmHg 36%
    23:00 +19°C° 0 mm 0 mps 715 mmHg 41%

    Day after tomorrow, 19 January, Thursday

    Time Temperature Precipitation Wind Pressure Humidity
    00:00 +19°C° 0 mm 0 mps 715 mmHg 46%
    01:00 +21°C° 0 mm 1 mps 715 mmHg 40%
    02:00 +22°C° 0 mm 1 mps 715 mmHg 34%
    03:00 +23°C° 0 mm 1 mps 715 mmHg 29%
    04:00 +22°C° 0 mm 1 mps 715 mmHg 38%
    05:00 +22°C° 0 mm 1 mps 715 mmHg 47%
    06:00 +21°C° 0 mm 1 mps 716 mmHg 56%
    07:00 +24°C° 0 mm 2 mps 717 mmHg 54%
    08:00 +27°C° 0 mm 2 mps 718 mmHg 52%
    09:00 +29°C° 0 mm 2 mps 719 mmHg 50%
    10:00 +32°C° 0 mm 2 mps 718 mmHg 41%
    11:00 +36°C° 0 mm 2 mps 718 mmHg 33%
    12:00 +38°C° 0 mm 2 mps 717 mmHg 25%
    13:00 +39°C° 0 mm 1 mps 717 mmHg 21%
    14:00 +40°C° 0 mm 1 mps 716 mmHg 18%
    15:00 +41°C° 0 mm 1 mps 715 mmHg 15%
    16:00 +36°C° 0 mm 1 mps 715 mmHg 20%
    17:00 +33°C° 0 mm 1 mps 715 mmHg 24%
    18:00 +29°C° 0 mm 1 mps 715 mmHg 28%
    19:00 +28°C° 0 mm 1 mps 715 mmHg 29%
    20:00 +27°C° 0 mm 1 mps 716 mmHg 31%
    21:00 +26°C° 0 mm 1 mps 716 mmHg 32%
    22:00 +26°C° 0 mm 1 mps 716 mmHg 32%
    23:00 +25°C° 0 mm 1 mps 716 mmHg 33%

    20 January, Friday

    Time Temperature Precipitation Wind Pressure Humidity
    00:00 +24°C° 0 mm 1 mps 715 mmHg 33%
    01:00 +24°C° 0 mm 1 mps 715 mmHg 33%
    02:00 +23°C° 0 mm 1 mps 715 mmHg 33%
    03:00 +22°C° 0 mm 1 mps 715 mmHg 33%
    04:00 +22°C° 0 mm 1 mps 715 mmHg 37%
    05:00 +22°C° 0 mm 1 mps 715 mmHg 42%
    06:00 +22°C° 0 mm 1 mps 716 mmHg 47%
    07:00 +25°C° 0 mm 1 mps 716 mmHg 45%
    08:00 +28°C° 0 mm 2 mps 717 mmHg 42%
    09:00 +31°C° 0 mm 2 mps 718 mmHg 40%
    10:00 +35°C° 0 mm 2 mps 718 mmHg 33%
    11:00 +36°C° 0 mm 1 mps 717 mmHg 25%
    12:00 +40°C° 0 mm 1 mps 717 mmHg 18%
    13:00 +41°C° 0 mm 1 mps 716 mmHg 16%
    14:00 +41°C° 0 mm 1 mps 715 mmHg 14%
    15:00 +42°C° 0 mm 1 mps 714 mmHg 12%
    16:00 +37°C° 0 mm 1 mps 714 mmHg 16%
    17:00 +33°C° 0 mm 1 mps 714 mmHg 20%
    18:00 +29°C° 0 mm 1 mps 714 mmHg 24%
    19:00 +27°C° 0 mm 1 mps 714 mmHg 26%
    20:00 +26°C° 0 mm 1 mps 715 mmHg 28%
    21:00 +24°C° 0 mm 1 mps 715 mmHg 30%
    22:00 +24°C° 0 mm 1 mps 715 mmHg 28%
    23:00 +25°C° 0 mm 1 mps 715 mmHg 27%

    21 January, Saturday

    Time Temperature Precipitation Wind Pressure Humidity
    00:00 +25°C° 0 mm 1 mps 715 mmHg 25%
    01:00 +24°C° 0 mm 1 mps 715 mmHg 28%
    02:00 +24°C° 0 mm 1 mps 715 mmHg 31%
    03:00 +24°C° 0 mm 1 mps 714 mmHg 34%
    04:00 +23°C° 0 mm 1 mps 715 mmHg 42%
    05:00 +23°C° 0 mm 1 mps 715 mmHg 51%
    06:00 +23°C° 0 mm 1 mps 716 mmHg 59%
    07:00 +26°C° 0 mm 2 mps 716 mmHg 57%
    08:00 +28°C° 0 mm 2 mps 717 mmHg 54%
    09:00 +31°C° 0 mm 2 mps 718 mmHg 52%
    10:00 +34°C° 0 mm 2 mps 717 mmHg 42%
    11:00 +37°C° 0 mm 2 mps 717 mmHg 33%
    12:00 +39°C° 0 mm 1 mps 716 mmHg 23%
    13:00 +40°C° 0 mm 1 mps 716 mmHg 20%
    14:00 +39°C° 0 mm 0 mps 715 mmHg 18%
    15:00 +40°C° 0 mm 0 mps 714 mmHg 15%
    16:00 +36°C° 0 mm 0 mps 714 mmHg 19%
    17:00 +34°C° 0 mm 1 mps 714 mmHg 24%
    18:00 +30°C° 0 mm 1 mps 714 mmHg 28%
    19:00 +29°C° 0 mm 1 mps 714 mmHg 29%
    20:00 +29°C° 0 mm 1 mps 715 mmHg 30%
    21:00 +26°C° 0 mm 0 mps 715 mmHg 31%
    22:00 +26°C° 0 mm 0 mps 715 mmHg 31%
    23:00 +25°C° 0 mm 0 mps 715 mmHg 32%

    22 January, Sunday

    Time Temperature Precipitation Wind Pressure Humidity
    00:00 +25°C° 0 mm 0 mps 715 mmHg 32%
    01:00 +26°C° 0 mm 1 mps 715 mmHg 34%
    02:00 +25°C° 0 mm 1 mps 715 mmHg 35%
    03:00 +24°C° 0 mm 1 mps 715 mmHg 37%
    04:00 +24°C° 0 mm 1 mps 715 mmHg 42%
    05:00 +23°C° 0 mm 1 mps 716 mmHg 46%
    06:00 +23°C° 0 mm 1 mps 716 mmHg 50%
    07:00 +26°C° 0 mm 2 mps 717 mmHg 50%
    08:00 +29°C° 0 mm 2 mps 717 mmHg 49%
    09:00 +31°C° 0 mm 2 mps 718 mmHg 48%
    10:00 +34°C° 0 mm 2 mps 718 mmHg 41%
    11:00 +37°C° 0 mm 2 mps 717 mmHg 33%
    12:00 +39°C° 0 mm 2 mps 717 mmHg 25%
    13:00 +40°C° 0 mm 1 mps 716 mmHg 23%
    14:00 +40°C° 0 mm 1 mps 715 mmHg 20%
    15:00 +41°C° 0 mm 1 mps 715 mmHg 18%
    16:00 +37°C° 0 mm 1 mps 715 mmHg 22%
    17:00 +34°C° 0 mm 1 mps 715 mmHg 25%
    18:00 +31°C° 0 mm 1 mps 715 mmHg 29%
    19:00 +31°C° 0 mm 1 mps 715 mmHg 30%
    20:00 +30°C° 0 mm 1 mps 716 mmHg 31%
    21:00 +29°C° 0 mm 1 mps 716 mmHg 32%
    22:00 +28°C° 0.1 mm 1 mps 716 mmHg 34%
    23:00 +27°C° 0.1 mm 1 mps 716 mmHg 36%
    Show more